"read_dt","SO2 (ppb)","flags","PMT voltage (V)","lamp voltage (V)","lamp intensity (Hz)","internal temp (C)","react chamber temp (C)","sample flow (l/min)","pres (mmHg)","SO2 bkg (ppb)","SO2 coefficient"
2018-10-04 00:00:00,-3.146E-01,4C000000*,-703.0,963.384,89,25.0,44.8,0.405,733.0,2.2,1.050*
2018-10-04 00:01:00,-2.714E-01,4C000000*,-703.0,962.979,90,25.0,45.0,0.405,733.0,2.2,1.050*
2018-10-04 00:02:00,-2.611E-01,4C000000*,-703.0,964.597,90,25.0,45.0,0.405,733.0,2.2,1.050*
2018-10-04 00:03:00,-2.387E-01,4C000000*,-703.0,964.597,90,25.1,44.8,0.405,733.0,2.2,1.050*
2018-10-04 00:04:00,-2.542E-01,4C000000*,-702.6,963.788,89,25.0,45.0,0.405,733.3,2.2,1.050*
2018-10-04 00:05:00,-2.462E-01,4C000000*,-702.6,963.384,90,25.0,44.9,0.405,733.0,2.2,1.050*
2018-10-04 00:06:00,-2.571E-01,4C000000*,-703.0,964.192,90,25.1,44.9,0.405,733.3,2.2,1.050*
2018-10-04 00:07:00,-3.277E-01,4C000000*,-703.4,964.192,90,25.0,45.1,0.405,733.0,2.2,1.050*
2018-10-04 00:08:00,-2.076E-01,4C000000*,-703.0,965.405,88,25.0,44.8,0.405,733.0,2.2,1.050*
2018-10-04 00:09:00,-3.104E-01,4C000000*,-703.0,965.001,90,25.1,44.8,0.405,733.3,2.2,1.050*
2018-10-04 00:10:00,-3.001E-01,4C000000*,-703.4,963.788,90,25.1,45.1,0.405,733.0,2.2,1.050*
2018-10-04 00:11:00,-3.017E-01,4C000000*,-703.0,963.384,90,25.1,44.8,0.405,733.0,2.2,1.050*
2018-10-04 00:12:00,-2.668E-01,4C000000*,-703.4,963.788,90,25.1,45.0,0.405,733.0,2.2,1.050*
2018-10-04 00:13:00,-1.851E-01,4C000000*,-703.0,964.192,90,25.1,45.1,0.405,733.0,2.2,1.050*
2018-10-04 00:14:00,-2.991E-01,4C000000*,-703.0,964.192,91,25.0,44.8,0.405,733.3,2.2,1.050*
2018-10-04 00:15:00,-2.918E-01,4C000000*,-703.7,962.979,89,25.1,45.0,0.405,733.0,2.2,1.050*
2018-10-04 00:16:00,-2.902E-01,4C000000*,-703.0,965.809,91,25.0,44.9,0.405,733.0,2.2,1.050*
2018-10-04 00:17:00,-2.198E-01,4C000000*,-703.4,965.001,91,25.1,44.8,0.405,733.3,2.2,1.050*
2018-10-04 00:18:00,-2.617E-01,4C000000*,-703.0,962.979,90,25.1,45.1,0.405,733.0,2.2,1.050*
2018-10-04 00:19:00,-3.756E-01,4C000000*,-703.0,963.384,90,25.1,44.8,0.405,733.3,2.2,1.050*
2018-10-04 00:20:00,-2.257E-01,4C000000*,-703.0,964.192,90,25.1,44.9,0.405,733.3,2.2,1.050*
2018-10-04 00:21:00,-3.098E-01,4C000000*,-703.4,963.788,91,25.1,45.1,0.405,733.0,2.2,1.050*
2018-10-04 00:22:00,-2.803E-01,4C000000*,-703.0,963.384,90,25.0,44.8,0.405,733.3,2.2,1.050*
2018-10-04 00:23:00,-3.086E-01,4C000000*,-702.6,963.788,89,25.1,45.0,0.405,733.3,2.2,1.050*
2018-10-04 00:24:00,-3.135E-01,4C000000*,-703.0,964.192,89,25.0,45.0,0.405,733.0,2.2,1.050*
2018-10-04 00:25:00,-2.997E-01,4C000000*,-703.0,963.788,91,25.0,44.8,0.405,733.3,2.2,1.050*
2018-10-04 00:26:00,-3.510E-01,4C000000*,-703.0,964.192,91,25.0,45.0,0.405,733.3,2.2,1.050*
2018-10-04 00:27:00,-2.678E-01,4C000000*,-703.0,963.788,89,25.1,44.9,0.405,733.3,2.2,1.050*
2018-10-04 00:28:00,-2.872E-01,4C000000*,-703.4,963.788,90,25.1,44.8,0.405,733.3,2.2,1.050*
2018-10-04 00:29:00,-3.628E-01,4C000000*,-702.6,964.597,90,25.2,45.1,0.405,733.3,2.2,1.050*
2018-10-04 00:30:00,-2.352E-01,4C000000*,-703.0,965.001,90,25.1,44.7,0.405,733.3,2.2,1.050*
2018-10-04 00:31:00,-2.570E-01,4C000000*,-702.6,963.384,90,25.0,44.8,0.405,733.3,2.2,1.050*
2018-10-04 00:32:00,-2.922E-01,4C000000*,-703.0,963.384,89,25.1,45.1,0.405,733.3,2.2,1.050*
2018-10-04 00:33:00,-2.230E-01,4C000000*,-702.6,964.192,90,25.1,44.8,0.405,733.3,2.2,1.050*
2018-10-04 00:34:00,-2.777E-01,4C000000*,-703.0,965.001,91,25.1,44.8,0.405,733.6,2.2,1.050*
2018-10-04 00:35:00,-2.267E-01,4C000000*,-703.0,965.001,90,25.0,45.0,0.405,733.3,2.2,1.050*
2018-10-04 00:36:00,-2.433E-01,4C000000*,-703.0,964.597,90,25.0,45.0,0.404,733.3,2.2,1.050*
2018-10-04 00:37:00,-3.361E-01,4C000000*,-703.0,965.001,89,25.1,44.8,0.405,733.3,2.2,1.050*
2018-10-04 00:38:00,-2.647E-01,4C000000*,-702.6,962.171,90,25.1,45.0,0.405,733.3,2.2,1.050*
2018-10-04 00:39:00,-2.991E-01,4C000000*,-703.0,964.597,90,25.1,44.9,0.405,733.3,2.2,1.050*
2018-10-04 00:40:00,-1.696E-01,4C000000*,-703.0,963.788,90,25.1,44.8,0.405,733.3,2.2,1.050*
2018-10-04 00:41:00,-2.306E-01,4C000000*,-702.6,964.192,90,25.1,45.0,0.405,733.3,2.2,1.050*
2018-10-04 00:42:00,-1.961E-01,4C000000*,-703.0,964.192,90,25.1,45.0,0.405,733.6,2.2,1.050*
2018-10-04 00:43:00,-2.887E-01,4C000000*,-703.0,964.597,91,25.1,44.8,0.405,733.3,2.2,1.050*
2018-10-04 00:44:00,-2.881E-01,4C000000*,-703.0,964.192,90,25.1,45.0,0.405,733.6,2.2,1.050*
2018-10-04 00:45:00,-3.116E-01,4C000000*,-702.6,963.384,89,25.1,44.9,0.405,733.3,2.2,1.050*
2018-10-04 00:46:00,-2.494E-01,4C000000*,-703.0,962.979,90,25.1,44.9,0.405,733.3,2.2,1.050*
2018-10-04 00:47:00,-3.759E-01,4C000000*,-703.0,963.788,91,25.1,45.2,0.405,733.3,2.2,1.050*
2018-10-04 00:48:00,-2.537E-01,4C000000*,-703.0,963.788,91,25.2,44.7,0.405,733.3,2.2,1.050*
2018-10-04 00:49:00,-2.507E-01,4C000000*,-703.0,962.575,91,25.1,44.9,0.405,733.3,2.2,1.050*
2018-10-04 00:50:00,-2.879E-01,4C000000*,-703.0,962.171,91,25.0,45.0,0.405,733.3,2.2,1.050*
2018-10-04 00:51:00,-2.257E-01,4C000000*,-702.6,963.788,90,25.1,44.8,0.405,733.3,2.2,1.050*
2018-10-04 00:52:00,-2.844E-01,4C000000*,-703.0,964.597,89,25.1,45.0,0.405,733.6,2.2,1.050*
2018-10-04 00:53:00,-2.736E-01,4C000000*,-703.0,962.171,90,25.1,45.0,0.405,733.3,2.2,1.050*
2018-10-04 00:54:00,-2.672E-01,4C000000*,-702.6,963.384,90,25.1,44.8,0.405,733.3,2.2,1.050*
2018-10-04 00:55:00,-2.486E-01,4C000000*,-703.0,963.788,90,25.1,45.0,0.405,733.3,2.2,1.050*
2018-10-04 00:56:00,-2.671E-01,4C000000*,-703.0,962.575,89,25.1,45.0,0.405,733.3,2.2,1.050*
2018-10-04 00:57:00,-2.038E-01,4C000000*,-703.0,962.171,89,25.2,44.9,0.405,733.3,2.2,1.050*
2018-10-04 00:58:00,-3.023E-01,4C000000*,-703.0,962.575,89,25.2,45.1,0.405,733.6,2.2,1.050*
2018-10-04 00:59:00,-2.444E-01,4C000000*,-703.0,964.597,90,25.1,44.8,0.405,733.3,2.2,1.050*
2018-10-04 01:00:00,-2.576E-01,4C000000*,-702.6,964.192,89,25.1,44.9,0.405,733.3,2.2,1.050*
2018-10-04 01:01:00,-3.569E-01,4C000000*,-703.0,963.788,88,25.1,45.1,0.405,733.3,2.2,1.050*
2018-10-04 01:02:00,-3.124E-01,4C000000*,-702.6,964.597,90,25.1,44.8,0.405,733.3,2.2,1.050*
2018-10-04 01:03:00,-3.243E-01,4C000000*,-702.6,962.979,90,25.1,44.8,0.405,733.6,2.2,1.050*
2018-10-04 01:04:00,-2.981E-01,4C000000*,-703.0,961.767,90,25.1,45.1,0.405,733.6,2.2,1.050*
2018-10-04 01:05:00,-2.714E-01,4C000000*,-703.0,962.979,89,25.2,44.8,0.405,733.3,2.2,1.050*
2018-10-04 01:06:00,-2.444E-01,4C000000*,-703.0,963.788,90,25.2,44.9,0.405,733.6,2.2,1.050*
2018-10-04 01:07:00,-2.635E-01,4C000000*,-703.0,963.384,89,25.1,45.1,0.405,733.3,2.2,1.050*
2018-10-04 01:08:00,-3.155E-01,4C000000*,-702.6,962.979,89,25.2,44.8,0.405,733.6,2.2,1.050*
2018-10-04 01:09:00,-2.622E-01,4C000000*,-703.0,963.788,91,25.2,44.9,0.405,733.3,2.2,1.050*
2018-10-04 01:10:00,-2.795E-01,4C000000*,-702.6,963.788,89,25.2,45.1,0.405,733.6,2.2,1.050*
2018-10-04 01:11:00,-2.999E-01,4C000000*,-703.0,963.788,90,25.1,44.8,0.405,733.6,2.2,1.050*
2018-10-04 01:12:00,-2.302E-01,4C000000*,-702.6,963.384,91,25.1,45.0,0.405,733.6,2.2,1.050*
2018-10-04 01:13:00,-2.609E-01,4C000000*,-703.7,963.788,90,25.2,44.9,0.405,733.3,2.2,1.050*
2018-10-04 01:14:00,-2.465E-01,4C000000*,-703.0,963.384,90,25.1,44.8,0.405,733.6,2.2,1.050*
2018-10-04 01:15:00,-2.638E-01,4C000000*,-703.0,963.788,90,25.1,45.1,0.405,733.6,2.2,1.050*
2018-10-04 01:16:00,-2.422E-01,4C000000*,-703.0,963.788,90,25.2,44.8,0.405,733.3,2.2,1.050*
2018-10-04 01:17:00,-2.518E-01,4C000000*,-703.0,963.384,90,25.2,44.9,0.405,733.6,2.2,1.050*
2018-10-04 01:18:00,-2.704E-01,4C000000*,-703.0,963.384,90,25.2,45.1,0.405,733.3,2.2,1.050*
2018-10-04 01:19:00,-3.027E-01,4C000000*,-703.0,963.788,91,25.2,44.8,0.405,733.3,2.2,1.050*
2018-10-04 01:20:00,-2.962E-01,4C000000*,-703.0,963.788,90,25.2,45.0,0.405,733.3,2.2,1.050*
2018-10-04 01:21:00,-2.889E-01,4C000000*,-703.0,964.597,90,25.2,45.1,0.405,733.3,2.2,1.050*
2018-10-04 01:22:00,-2.595E-01,4C000000*,-703.0,963.384,91,25.2,44.8,0.405,733.3,2.2,1.050*
2018-10-04 01:23:00,-3.560E-01,4C000000*,-702.6,964.597,90,25.2,45.0,0.405,733.3,2.2,1.050*
2018-10-04 01:24:00,-2.683E-01,4C000000*,-702.6,963.788,90,25.2,44.9,0.405,733.3,2.2,1.050*
2018-10-04 01:25:00,-3.036E-01,4C000000*,-703.4,964.597,90,25.2,44.8,0.405,733.3,2.2,1.050*
2018-10-04 01:26:00,-3.200E-01,4C000000*,-703.0,964.192,90,25.2,45.1,0.405,733.3,2.2,1.050*
2018-10-04 01:27:00,-3.291E-01,4C000000*,-703.0,963.384,90,25.2,44.9,0.405,733.3,2.2,1.050*
2018-10-04 01:28:00,-2.495E-01,4C000000*,-702.6,963.384,90,25.2,44.9,0.405,733.3,2.2,1.050*
2018-10-04 01:29:00,-2.594E-01,4C000000*,-703.0,964.597,89,25.2,45.1,0.405,733.3,2.2,1.050*
2018-10-04 01:30:00,-2.284E-01,4C000000*,-702.6,962.979,91,25.2,44.7,0.405,733.3,2.2,1.050*
2018-10-04 01:31:00,-3.284E-01,4C000000*,-702.6,963.788,89,25.2,44.9,0.405,733.6,2.2,1.050*
2018-10-04 01:32:00,-2.490E-01,4C000000*,-703.0,963.788,89,25.2,45.1,0.405,733.6,2.2,1.050*
2018-10-04 01:33:00,-2.946E-01,4C000000*,-703.4,964.192,90,25.2,44.8,0.405,733.6,2.2,1.050*
2018-10-04 01:34:00,-2.730E-01,4C000000*,-702.6,964.192,90,25.2,44.9,0.405,733.3,2.2,1.050*
2018-10-04 01:35:00,-2.944E-01,4C000000*,-703.0,963.384,89,25.2,45.1,0.405,733.6,2.2,1.050*
2018-10-04 01:36:00,-2.007E-01,4C000000*,-703.0,963.788,90,25.1,44.7,0.405,733.6,2.2,1.050*
2018-10-04 01:37:00,-2.609E-01,4C000000*,-703.0,965.405,91,25.3,44.9,0.405,733.6,2.2,1.050*
2018-10-04 01:38:00,-1.810E-01,4C000000*,-703.0,964.597,89,25.2,45.2,0.405,733.3,2.2,1.050*
2018-10-04 01:39:00,-2.885E-01,4C000000*,-702.6,963.788,89,25.2,44.8,0.405,733.6,2.2,1.050*
2018-10-04 01:40:00,-2.201E-01,4C000000*,-702.6,962.575,90,25.2,44.8,0.405,733.6,2.2,1.050*
2018-10-04 01:41:00,-3.158E-01,4C000000*,-703.0,962.171,89,25.3,45.1,0.405,733.6,2.2,1.050*
2018-10-04 01:42:00,-2.127E-01,4C000000*,-703.0,962.979,91,25.2,44.8,0.405,733.6,2.2,1.050*
2018-10-04 01:43:00,-3.099E-01,4C000000*,-703.0,962.979,89,25.2,44.8,0.405,733.6,2.2,1.050*
2018-10-04 01:44:00,-3.788E-01,4C000000*,-703.0,963.384,88,25.2,45.2,0.405,733.6,2.2,1.050*
2018-10-04 01:45:00,-3.066E-01,4C000000*,-703.0,962.979,89,25.2,44.8,0.405,733.6,2.2,1.050*
2018-10-04 01:46:00,-3.430E-01,4C000000*,-703.0,962.979,88,25.3,44.9,0.405,733.6,2.2,1.050*
2018-10-04 01:47:00,-2.244E-01,4C000000*,-703.0,962.979,89,25.3,45.1,0.405,733.6,2.2,1.050*
2018-10-04 01:48:00,-3.835E-01,4C000000*,-703.0,962.575,90,25.3,44.8,0.405,733.6,2.2,1.050*
2018-10-04 01:49:00,-3.422E-01,4C000000*,-703.0,963.788,90,25.3,45.0,0.405,733.6,2.2,1.050*
2018-10-04 01:50:00,-2.218E-01,4C000000*,-703.0,965.001,90,25.3,45.1,0.405,733.3,2.2,1.050*
2018-10-04 01:51:00,-3.629E-01,4C000000*,-703.0,964.597,88,25.2,44.8,0.405,733.6,2.2,1.050*
2018-10-04 01:52:00,-3.112E-01,4C000000*,-703.4,964.192,91,25.3,45.1,0.405,733.6,2.2,1.050*
2018-10-04 01:53:00,-2.572E-01,4C000000*,-703.0,962.979,88,25.2,44.8,0.405,733.6,2.2,1.050*
2018-10-04 01:54:00,-2.805E-01,4C000000*,-703.0,965.405,91,25.3,44.8,0.405,733.6,2.2,1.050*
2018-10-04 01:55:00,-2.885E-01,4C000000*,-703.0,963.384,89,25.3,45.1,0.405,733.6,2.2,1.050*
2018-10-04 01:56:00,-2.789E-01,4C000000*,-703.0,964.192,90,25.2,44.8,0.405,733.6,2.2,1.050*
2018-10-04 01:57:00,-3.328E-01,4C000000*,-703.0,965.809,91,25.3,44.9,0.405,733.6,2.2,1.050*
2018-10-04 01:58:00,-3.048E-01,4C000000*,-703.0,964.597,91,25.2,45.0,0.405,733.6,2.2,1.050*
2018-10-04 01:59:00,-3.932E-01,4C000000*,-703.4,963.788,89,25.3,44.8,0.405,733.6,2.2,1.050*
2018-10-04 02:00:00,-2.836E-01,4C000000*,-703.0,963.788,90,25.2,44.9,0.405,733.6,2.2,1.050*
2018-10-04 02:01:00,-3.339E-01,4C000000*,-702.6,963.788,90,25.3,45.1,0.405,733.6,2.2,1.050*
2018-10-04 02:02:00,-2.821E-01,4C000000*,-703.0,962.979,89,25.3,44.7,0.405,733.6,2.2,1.050*
2018-10-04 02:03:00,-3.502E-01,4C000000*,-702.6,964.597,88,25.2,44.9,0.405,733.6,2.2,1.050*
2018-10-04 02:04:00,-3.276E-01,4C000000*,-702.6,963.384,90,25.3,45.1,0.405,733.6,2.2,1.050*
2018-10-04 02:05:00,-2.952E-01,4C000000*,-703.0,964.192,91,25.3,44.8,0.405,733.6,2.2,1.050*
2018-10-04 02:06:00,-3.713E-01,4C000000*,-703.0,964.597,88,25.3,45.0,0.405,733.9,2.2,1.050*
2018-10-04 02:07:00,-2.657E-01,4C000000*,-702.6,965.001,90,25.3,45.0,0.405,733.6,2.2,1.050*
2018-10-04 02:08:00,-2.871E-01,4C000000*,-703.0,963.788,90,25.3,44.8,0.405,733.9,2.2,1.050*
2018-10-04 02:09:00,-3.529E-01,4C000000*,-703.0,964.597,90,25.3,45.1,0.405,733.6,2.2,1.050*
2018-10-04 02:10:00,-3.245E-01,4C000000*,-703.0,965.001,89,25.3,44.9,0.405,733.9,2.2,1.050*
2018-10-04 02:11:00,-2.851E-01,4C000000*,-703.0,964.192,85,25.3,44.8,0.405,733.9,2.2,1.050*
2018-10-04 02:12:00,-2.011E-01,4C000000*,-703.0,963.384,89,25.3,45.1,0.405,733.6,2.2,1.050*
2018-10-04 02:13:00,-2.060E-01,4C000000*,-702.6,965.001,90,25.3,44.9,0.405,733.6,2.2,1.050*
2018-10-04 02:14:00,-2.577E-01,4C000000*,-702.6,963.788,90,25.2,44.9,0.406,733.6,2.2,1.050*
2018-10-04 02:15:00,-2.821E-01,4C000000*,-703.0,965.001,91,25.3,45.1,0.405,733.6,2.2,1.050*
2018-10-04 02:16:00,-2.669E-01,4C000000*,-703.0,963.788,90,25.3,44.7,0.405,733.6,2.2,1.050*
2018-10-04 02:17:00,-2.153E-01,4C000000*,-702.6,965.405,91,25.3,44.9,0.406,733.6,2.2,1.050*
2018-10-04 02:18:00,-3.164E-01,4C000000*,-702.6,963.384,90,25.4,45.1,0.405,733.6,2.2,1.050*
2018-10-04 02:19:00,-2.019E-01,4C000000*,-703.0,963.788,89,25.4,44.9,0.405,733.6,2.2,1.050*
2018-10-04 02:20:00,-2.476E-01,4C000000*,-702.6,964.597,89,25.3,45.1,0.405,733.6,2.2,1.050*
2018-10-04 02:21:00,-3.270E-01,4C000000*,-702.6,963.384,90,25.4,44.8,0.405,733.6,2.2,1.050*
2018-10-04 02:22:00,-3.160E-01,4C000000*,-702.6,963.788,89,25.3,45.0,0.405,733.9,2.2,1.050*
2018-10-04 02:23:00,-2.825E-01,4C000000*,-703.0,964.597,91,25.4,45.0,0.405,733.6,2.2,1.050*
2018-10-04 02:24:00,-2.032E-01,4C000000*,-703.0,963.788,90,25.4,44.8,0.405,733.6,2.2,1.050*
2018-10-04 02:25:00,-2.577E-01,4C000000*,-702.6,964.597,91,25.4,45.0,0.405,733.6,2.2,1.050*
2018-10-04 02:26:00,-2.006E-01,4C000000*,-703.0,963.788,90,25.4,45.0,0.405,733.6,2.2,1.050*
2018-10-04 02:27:00,-2.570E-01,4C000000*,-703.0,965.001,90,25.5,44.8,0.405,733.6,2.2,1.050*
2018-10-04 02:28:00,-3.076E-01,4C000000*,-702.6,964.192,89,25.3,45.0,0.405,733.6,2.2,1.050*
2018-10-04 02:29:00,-3.270E-01,4C000000*,-703.0,963.384,89,25.4,44.8,0.406,733.6,2.2,1.050*
2018-10-04 02:30:00,-2.350E-01,4C000000*,-703.0,963.384,90,25.4,44.8,0.405,733.9,2.2,1.050*
2018-10-04 02:31:00,-3.033E-01,4C000000*,-703.0,962.979,89,25.4,45.1,0.405,733.9,2.2,1.050*
2018-10-04 02:32:00,-2.842E-01,4C000000*,-703.0,962.979,89,25.4,44.9,0.405,733.6,2.2,1.050*
2018-10-04 02:33:00,-2.715E-01,4C000000*,-703.0,963.788,89,25.4,44.8,0.406,733.9,2.2,1.050*
2018-10-04 02:34:00,-2.351E-01,4C000000*,-703.0,962.979,89,25.4,45.1,0.405,733.6,2.2,1.050*
2018-10-04 02:35:00,-2.699E-01,4C000000*,-703.0,962.979,90,25.4,44.9,0.405,733.6,2.2,1.050*
2018-10-04 02:36:00,-3.084E-01,4C000000*,-703.0,962.575,90,25.4,44.9,0.405,733.6,2.2,1.050*
2018-10-04 02:37:00,-2.755E-01,4C000000*,-703.0,963.384,89,25.4,45.2,0.405,733.9,2.2,1.050*
2018-10-04 02:38:00,-3.033E-01,4C000000*,-702.6,963.788,90,25.4,44.8,0.405,733.6,2.2,1.050*
2018-10-04 02:39:00,-2.766E-01,4C000000*,-702.6,962.575,88,25.5,45.0,0.405,733.9,2.2,1.050*
2018-10-04 02:40:00,-3.245E-01,4C000000*,-703.0,962.575,90,25.5,45.0,0.405,733.9,2.2,1.050*
2018-10-04 02:41:00,-3.332E-01,4C000000*,-703.0,963.788,91,25.5,44.8,0.405,733.9,2.2,1.050*
2018-10-04 02:42:00,-2.846E-01,4C000000*,-703.4,962.171,91,25.5,45.0,0.405,733.9,2.2,1.050*
2018-10-04 02:43:00,-2.888E-01,4C000000*,-703.0,964.192,90,25.5,45.1,0.405,733.9,2.2,1.050*
2018-10-04 02:44:00,-2.821E-01,4C000000*,-703.0,963.788,90,25.5,44.8,0.406,733.9,2.2,1.050*
2018-10-04 02:45:00,-2.851E-01,4C000000*,-703.0,963.384,90,25.5,45.1,0.405,733.9,2.2,1.050*
2018-10-04 02:46:00,-3.442E-01,4C000000*,-703.0,963.384,90,25.5,44.8,0.406,733.9,2.2,1.050*
2018-10-04 02:47:00,-3.477E-01,4C000000*,-702.6,963.384,90,25.5,44.9,0.405,733.9,2.2,1.050*
2018-10-04 02:48:00,-2.206E-01,4C000000*,-703.0,963.384,90,25.5,45.2,0.405,733.9,2.2,1.050*
2018-10-04 02:49:00,-2.314E-01,4C000000*,-703.4,962.979,91,25.4,44.8,0.405,733.9,2.2,1.050*
2018-10-04 02:50:00,-2.674E-01,4C000000*,-703.4,963.384,90,25.5,44.9,0.405,733.9,2.2,1.050*
2018-10-04 02:51:00,-3.080E-01,4C000000*,-703.0,963.788,89,25.5,45.0,0.406,733.9,2.2,1.050*
2018-10-04 02:52:00,-3.455E-01,4C000000*,-702.6,963.788,91,25.4,44.8,0.406,733.9,2.2,1.050*
2018-10-04 02:53:00,-2.251E-01,4C000000*,-702.6,963.384,89,25.5,45.0,0.405,733.9,2.2,1.050*
2018-10-04 02:54:00,-2.412E-01,4C000000*,-702.6,963.788,90,25.5,45.0,0.405,733.9,2.2,1.050*
2018-10-04 02:55:00,-2.875E-01,4C000000*,-703.0,964.192,89,25.5,44.8,0.405,733.9,2.2,1.050*
2018-10-04 02:56:00,-2.087E-01,4C000000*,-703.0,962.171,90,25.5,45.1,0.405,733.9,2.2,1.050*
2018-10-04 02:57:00,-3.150E-01,4C000000*,-702.6,963.788,90,25.5,44.9,0.405,733.9,2.2,1.050*
2018-10-04 02:58:00,-3.077E-01,4C000000*,-703.0,963.788,90,25.5,44.9,0.406,734.2,2.2,1.050*
2018-10-04 02:59:00,-3.004E-01,4C000000*,-703.0,962.979,89,25.5,45.2,0.406,733.9,2.2,1.050*
2018-10-04 03:00:00,-2.217E-01,4C000000*,-702.6,963.384,91,25.5,44.8,0.405,733.9,2.2,1.050*
2018-10-04 03:01:00,-2.527E-01,4C000000*,-703.0,963.788,87,25.5,44.9,0.405,733.9,2.2,1.050*
2018-10-04 03:02:00,-3.046E-01,4C000000*,-703.0,963.788,89,25.6,45.0,0.405,733.9,2.2,1.050*
2018-10-04 03:03:00,-2.466E-01,4C000000*,-703.0,964.192,89,25.5,44.8,0.406,733.9,2.2,1.050*
2018-10-04 03:04:00,-2.053E-01,4C000000*,-703.0,963.384,91,25.6,45.0,0.406,733.9,2.2,1.050*
2018-10-04 03:05:00,-2.805E-01,4C000000*,-703.0,963.384,90,25.5,45.1,0.406,733.9,2.2,1.050*
2018-10-04 03:06:00,-2.709E-01,4C000000*,-703.4,963.788,90,25.5,44.8,0.405,734.2,2.2,1.050*
2018-10-04 03:07:00,-3.005E-01,4C000000*,-702.6,963.384,90,25.5,45.0,0.405,734.2,2.2,1.050*
2018-10-04 03:08:00,-2.402E-01,4C000000*,-702.6,963.788,90,25.6,44.8,0.405,733.9,2.2,1.050*
2018-10-04 03:09:00,-1.883E-01,4C000000*,-703.4,963.788,89,25.5,44.8,0.405,734.2,2.2,1.050*
2018-10-04 03:10:00,-2.571E-01,4C000000*,-703.4,963.384,87,25.6,45.2,0.406,734.2,2.2,1.050*
2018-10-04 03:11:00,-2.328E-01,4C000000*,-703.0,962.979,90,25.6,44.8,0.405,734.2,2.2,1.050*
2018-10-04 03:12:00,-3.686E-01,4C000000*,-703.4,964.597,90,25.6,44.9,0.406,734.2,2.2,1.050*
2018-10-04 03:13:00,-2.247E-01,4C000000*,-703.4,963.384,89,25.6,45.1,0.405,733.9,2.2,1.050*
2018-10-04 03:14:00,-2.594E-01,4C000000*,-703.0,965.405,90,25.6,44.8,0.406,734.2,2.2,1.050*
2018-10-04 03:15:00,-2.294E-01,4C000000*,-702.3,965.405,89,25.6,45.0,0.405,734.2,2.2,1.050*
2018-10-04 03:16:00,-2.836E-01,4C000000*,-703.4,964.597,90,25.6,45.1,0.406,733.9,2.2,1.050*
2018-10-04 03:17:00,-3.207E-01,4C000000*,-703.0,963.788,90,25.6,44.8,0.406,734.2,2.2,1.050*
2018-10-04 03:18:00,-3.067E-01,4C000000*,-703.0,963.788,89,25.5,45.1,0.406,734.2,2.2,1.050*
2018-10-04 03:19:00,-1.891E-01,4C000000*,-702.6,962.979,89,25.5,44.9,0.405,733.9,2.2,1.050*
2018-10-04 03:20:00,-2.956E-01,4C000000*,-703.4,964.597,91,25.6,44.8,0.405,733.9,2.2,1.050*
2018-10-04 03:21:00,-1.667E-01,4C000000*,-703.0,963.788,90,25.6,45.2,0.406,734.2,2.2,1.050*
2018-10-04 03:22:00,-2.194E-01,4C000000*,-702.6,962.979,91,25.6,44.8,0.405,733.9,2.2,1.050*
2018-10-04 03:23:00,-2.214E-01,4C000000*,-702.6,963.788,89,25.6,44.9,0.406,734.2,2.2,1.050*
2018-10-04 03:24:00,-2.675E-01,4C000000*,-702.6,964.192,90,25.6,45.1,0.405,734.2,2.2,1.050*
2018-10-04 03:25:00,-2.804E-01,4C000000*,-703.0,963.384,90,25.6,44.8,0.405,734.2,2.2,1.050*
2018-10-04 03:26:00,-3.085E-01,4C000000*,-703.0,963.788,90,25.6,45.0,0.405,734.2,2.2,1.050*
2018-10-04 03:27:00,-2.535E-01,4C000000*,-703.0,963.384,90,25.7,45.0,0.406,734.2,2.2,1.050*
2018-10-04 03:28:00,-3.019E-01,4C000000*,-702.6,964.192,90,25.6,44.8,0.406,734.2,2.2,1.050*
2018-10-04 03:29:00,-3.356E-01,4C000000*,-703.0,964.597,91,25.7,45.0,0.405,734.2,2.2,1.050*
2018-10-04 03:30:00,-3.261E-01,4C000000*,-703.0,963.788,90,25.6,44.9,0.405,733.9,2.2,1.050*
2018-10-04 03:31:00,-3.553E-01,4C000000*,-703.0,964.192,89,25.6,44.8,0.406,734.5,2.2,1.050*
2018-10-04 03:32:00,-2.094E-01,4C000000*,-703.0,963.788,91,25.6,45.1,0.405,734.2,2.2,1.050*
2018-10-04 03:33:00,-2.972E-01,4C000000*,-702.6,965.405,90,25.7,44.8,0.405,734.2,2.2,1.050*
2018-10-04 03:34:00,-2.636E-01,4C000000*,-703.0,963.788,90,25.7,44.9,0.406,734.2,2.2,1.050*
2018-10-04 03:35:00,-2.473E-01,4C000000*,-703.0,963.384,89,25.6,45.1,0.406,734.2,2.2,1.050*
2018-10-04 03:36:00,-3.431E-01,4C000000*,-703.0,963.788,90,25.6,44.8,0.405,734.5,2.2,1.050*
2018-10-04 03:37:00,-2.740E-01,4C000000*,-703.0,962.979,89,25.7,45.0,0.406,734.5,2.2,1.050*
2018-10-04 03:38:00,-2.082E-01,4C000000*,-703.0,962.979,90,25.7,45.1,0.405,734.2,2.2,1.050*
2018-10-04 03:39:00,-3.098E-01,4C000000*,-702.6,963.384,90,25.6,44.8,0.406,734.2,2.2,1.050*
2018-10-04 03:40:00,-2.568E-01,4C000000*,-703.0,964.192,90,25.7,45.0,0.406,734.5,2.2,1.050*
2018-10-04 03:41:00,-3.346E-01,4C000000*,-702.6,963.384,89,25.7,44.9,0.406,734.2,2.2,1.050*
2018-10-04 03:42:00,-3.842E-01,4C000000*,-703.0,962.979,90,25.7,44.8,0.405,734.5,2.2,1.050*
2018-10-04 03:43:00,-2.285E-01,4C000000*,-703.0,963.788,89,25.6,45.1,0.406,734.5,2.2,1.050*
2018-10-04 03:44:00,-2.836E-01,4C000000*,-702.6,963.384,89,25.6,44.9,0.405,734.2,2.2,1.050*
2018-10-04 03:45:00,-3.125E-01,4C000000*,-703.0,964.597,90,25.7,45.0,0.406,734.5,2.2,1.050*
2018-10-04 03:46:00,-3.274E-01,4C000000*,-702.6,964.597,90,25.7,45.1,0.406,734.5,2.2,1.050*
2018-10-04 03:47:00,-2.646E-01,4C000000*,-703.0,963.788,91,25.6,44.7,0.406,734.5,2.2,1.050*
2018-10-04 03:48:00,-2.819E-01,4C000000*,-703.0,964.597,90,25.7,45.0,0.405,734.5,2.2,1.050*
2018-10-04 03:49:00,-3.713E-01,4C000000*,-703.0,964.597,90,25.7,45.1,0.406,734.5,2.2,1.050*
2018-10-04 03:50:00,-3.549E-01,4C000000*,-703.0,964.192,91,25.6,44.8,0.406,734.5,2.2,1.050*
2018-10-04 03:51:00,-2.936E-01,4C000000*,-702.6,965.001,90,25.7,45.0,0.406,734.5,2.2,1.050*
2018-10-04 03:52:00,-2.550E-01,4C000000*,-702.6,964.597,90,25.7,45.0,0.406,734.5,2.2,1.050*
2018-10-04 03:53:00,-2.346E-01,4C000000*,-702.6,963.384,90,25.7,44.8,0.406,734.5,2.2,1.050*
2018-10-04 03:54:00,-2.901E-01,4C000000*,-703.0,964.192,91,25.7,45.0,0.406,734.5,2.2,1.050*
2018-10-04 03:55:00,-2.215E-01,4C000000*,-703.0,964.597,90,25.7,44.9,0.406,734.5,2.2,1.050*
2018-10-04 03:56:00,-3.273E-01,4C000000*,-703.0,964.597,90,25.8,44.9,0.406,734.5,2.2,1.050*
2018-10-04 03:57:00,-2.656E-01,4C000000*,-703.0,963.384,90,25.8,45.1,0.406,734.5,2.2,1.050*
2018-10-04 03:58:00,-3.265E-01,4C000000*,-703.0,965.001,89,25.7,44.8,0.405,734.5,2.2,1.050*
2018-10-04 03:59:00,-2.997E-01,4C000000*,-702.6,962.979,90,25.7,44.9,0.406,734.5,2.2,1.050*
2018-10-04 04:00:00,-3.443E-01,4C000000*,-703.0,964.597,89,25.7,45.0,0.406,734.5,2.2,1.050*
2018-10-04 04:01:00,-2.472E-01,4C000000*,-703.0,963.384,90,25.7,44.8,0.406,734.5,2.2,1.050*
2018-10-04 04:02:00,-2.717E-01,4C000000*,-703.0,964.597,90,25.7,45.0,0.406,734.5,2.2,1.050*
2018-10-04 04:03:00,-2.347E-01,4C000000*,-703.0,962.979,90,25.7,45.0,0.406,734.5,2.2,1.050*
2018-10-04 04:04:00,-2.684E-01,4C000000*,-703.0,963.788,91,25.7,44.8,0.406,734.5,2.2,1.050*
2018-10-04 04:05:00,-2.174E-01,4C000000*,-703.0,964.192,90,25.7,45.0,0.406,734.8,2.2,1.050*
2018-10-04 04:06:00,-2.337E-01,4C000000*,-703.0,965.809,89,25.7,44.9,0.406,734.5,2.2,1.050*
2018-10-04 04:07:00,-2.193E-01,4C000000*,-703.0,964.192,89,25.7,44.9,0.406,734.8,2.2,1.050*
2018-10-04 04:08:00,-2.167E-01,4C000000*,-703.0,964.597,91,25.8,45.2,0.406,734.5,2.2,1.050*
2018-10-04 04:09:00,-2.827E-01,4C000000*,-702.6,964.192,89,25.7,44.8,0.406,734.8,2.2,1.050*
2018-10-04 04:10:00,-3.646E-01,4C000000*,-703.0,963.788,90,25.7,44.9,0.406,734.5,2.2,1.050*
2018-10-04 04:11:00,-2.893E-01,4C000000*,-703.0,964.192,90,25.8,45.1,0.405,734.5,2.2,1.050*
2018-10-04 04:12:00,-2.748E-01,4C000000*,-702.6,965.001,91,25.7,44.8,0.406,734.8,2.2,1.050*
2018-10-04 04:13:00,-3.567E-01,4C000000*,-702.6,964.597,90,25.7,45.0,0.406,734.5,2.2,1.050*
2018-10-04 04:14:00,-2.986E-01,4C000000*,-703.0,963.788,90,25.7,45.0,0.405,734.5,2.2,1.050*